This is the latest recevied weather packets stored in our database for station/object CQ0XCR-11. If no packets are shown the sender has not sent any weather packets the latest 1 day(s).
| Time | Temp. | Humidity | Pressure | Rain* | Wind** | Luminosity | Snow |
|---|---|---|---|---|---|---|---|
| 1777990643 | -2.78° C | - | 6550.2 hPa | 0.25 mm | 3.58 m/s, 328° | - | - |
| 1777990519 | -2.78° C | - | 6550.2 hPa | 0.25 mm | 3.58 m/s, 312° | - | - |
| 1777990395 | -2.78° C | - | 6550.2 hPa | 0.25 mm | 0.45 m/s, 329° | - | - |
| 1777990147 | -2.78° C | - | 6550.2 hPa | 0.25 mm | 1.79 m/s, 297° | - | - |
| 1777990023 | -2.78° C | - | 6550.2 hPa | 0.25 mm | 0.89 m/s, 317° | - | - |
| 1777989899 | -2.78° C | - | 6550.2 hPa | 0.25 mm | 1.79 m/s, 301° | - | - |
| 1777989775 | -2.78° C | - | 6550.2 hPa | 0.25 mm | 0.45 m/s, 183° | - | - |
| 1777989651 | -2.78° C | - | 6550.2 hPa | 0.25 mm | 2.24 m/s, 262° | - | - |
| 1777989527 | -2.78° C | - | 6550.2 hPa | 0.25 mm | 0.89 m/s, 289° | - | - |
| 1777989403 | -2.78° C | - | 6550.2 hPa | 0.25 mm | 1.34 m/s, 274° | - | - |
| 1777989279 | -2.78° C | - | 6550.2 hPa | 0.25 mm | 0.45 m/s, 310° | - | - |
| 1777989155 | -2.78° C | - | 6550.2 hPa | 0.25 mm | 1.34 m/s, 274° | - | - |
| 1777989031 | -2.78° C | - | 6550.2 hPa | 0.25 mm | 1.34 m/s, 284° | - | - |
| 1777988783 | -2.78° C | - | 6550.2 hPa | 0.25 mm | 2.24 m/s, 350° | - | - |
| 1777988659 | -2.78° C | - | 6550.2 hPa | 0.25 mm | 1.34 m/s, 284° | - | - |
| 1777988584 | -2.78° C | - | 6550.2 hPa | 0.25 mm | 3.13 m/s, 280° | - | - |
| 1777988535 | -2.78° C | - | 6550.2 hPa | 0.25 mm | 3.13 m/s, 280° | - | - |
| 1777988411 | -2.78° C | - | 6550.2 hPa | 0.25 mm | 2.68 m/s, 281° | - | - |
| 1777988287 | -2.78° C | - | 6550.2 hPa | 0.25 mm | 0.89 m/s, 281° | - | - |
| 1777988163 | -2.78° C | - | 6550.2 hPa | 0.25 mm | 1.79 m/s, 279° | - | - |
| 1777988039 | -2.78° C | - | 6550.2 hPa | 0.25 mm | 1.79 m/s, 322° | - | - |
| 1777987915 | -2.78° C | - | 6550.2 hPa | 0.25 mm | 4.92 m/s, 311° | - | - |
| 1777987419 | -2.78° C | - | 6550.2 hPa | 0.25 mm | 2.68 m/s, 338° | - | - |
| 1777986675 | -2.78° C | - | 6550.2 hPa | 0.25 mm | 2.24 m/s, 295° | - | - |
| 1777986584 | -2.78° C | - | 6550.2 hPa | 0.25 mm | 1.79 m/s, 287° | - | - |
* Rain since midnight (hover to see other rain measurements)
** Current wind speed in m/s (hover to see current wind gust speed)